Hourly Data Report for September 15, 2019

SAINT JOHN A
NEW BRUNSWICK
Current Station Operator: NAVCAN

45°18'58.000" N
65°53'24.000" W
108.80 m
8104901
71609
YSJ

Download Data

Hourly Data (September 2019)
Hourly Data Report for September 15, 2019
TIME
LST
Temp Definition
°C
Dew Point Definition
°C
Rel Hum Definition
%
Precip. Amount Definition
mm

Wind Dir Definition
10's deg

Wind Spd Definition
km/h
Visibility Definition
km
Stn Press Definition
kPa
Hmdx Definition


Wind Chill Definition


Weather Definition


00:00 13.3 13.3 100   21 20 6.4 100.69     Rain, Fog
01:00 14.0 14.0 100   20 31 4.8 100.64     Drizzle, Fog
02:00 13.9 13.9 100   22 23 4.8 100.57     Drizzle, Fog
03:00 13.6 13.6 100   21 21 1.6 100.51     Drizzle, Fog
04:00 13.8 13.8 100   22 15 1.6 100.45     Drizzle, Fog
05:00 13.7 13.7 100   22 17 0.8 100.46     Drizzle, Fog
06:00 13.8 13.8 100   21 16 0.8 100.44     Fog
07:00 13.8 13.8 100   21 15 0.8 100.42     Fog
08:00 14.1 14.1 100   20 12 0.8 100.43     Fog
09:00 15.4 15.4 100   19 10 4.0 100.36     Fog
10:00 15.9 15.9 100   20 17 4.8 100.31     Fog
11:00 16.8 15.6 92   20 18 9.7 100.24     Fog
12:00 17.6 16.0 90   19 23 12.9 100.17     LegendNANA
13:00 18.3 15.8 85   20 18 16.1 100.12     LegendNANA
14:00 19.0 15.2 78   20 24 16.1 100.08     Mostly Cloudy
15:00 18.0 14.5 80   22 16 24.1 100.07     LegendNANA
16:00 17.5 14.6 83   22 11 24.1 100.08     LegendNANA
17:00 18.9 11.5 62   27 12 24.1 100.11     Mostly Cloudy
18:00 17.5 11.7 69   27 9 24.1 100.11     LegendNANA
19:00 16.1 10.5 69   30 9 24.1 100.10     LegendNANA
20:00 15.3 10.8 74   29 10 24.1 100.13     Mostly Cloudy
21:00 14.5 11.0 79   29 8 24.1 100.12     LegendNANA
22:00 14.5 11.4 81   27 3 24.1 100.12     LegendNANA
23:00 14.2 11.2 82   25 8 24.1 100.09     Mostly Cloudy

Notes on Data Quality.

Legend

  • E = Estimated
  • M = Missing
  • NA = Not Available*
  • [empty] = Indicates an unobserved value
Date modified: